2019-093H (44886 NORAD) Tracking and Keplerian Element Data

This shows tracking and keplerian element data for the satellite.

Feedback or suggestion? Click here.




ElementValue
Catalog44886
Name2019-093H
Epoch Orbit1466
Epoch Day88.1445409
Epoch Year2020
RAAN164.876
Inclination97.9637
Eccentricity0.0014283
Argument of Perigee323.1373
Mean Anonmoly36.8862
Mean Motion14.82344797
Decay Rate1.5E-06
L11 44886U 19093H 20088.14454090 .00000150 00000-0 25557-4 0 9991
L22 44886 97.9637 164.8760 0014283 323.1373 36.8862 14.82344797 14664

Live tracking and technical data element details for 2019-093H (NORAD 44886). 2019-093H can be tracked NOW for your location showing map with azimuth and elevation plus other details from your city location.

Track the satellite on the map from your city or location and see movement details for azimuth, elevation, latitude, longitude, range, height, and movement on the map or in text.







IsCatalogInMostPopularTable: catalog: 44886, numindb: 25
Update: records affected: 1



GetName: 44886 2019-093H

Hit Count: updated at: Sat, 28 Mar 2020 19:53:17 GMT